Regional Weather Roundup
Issued by NWS Wakefield, VA

Home | Current Version | Previous Version | Text Only | Print | Product List | Glossary Off
Versions: 1 2 3 4 5 6 7 8 9 10 11 12 13 14 15 16 17 18 19 20 21 22 23 24 25 26

000
ASUS41 KAKQ 291616
RWRAKQ

REGIONAL WEATHER ROUNDUP
NATIONAL WEATHER SERVICE WAKEFIELD VA
1200 PM EDT THU JUN 29 2017

Note: "fair" indicates few or no clouds below 12,000 feet with no
significant weather and/or obstructions to visibility. * = Denotes
station may not report precipitation (e.g., rain,snow,etc.),
thunder or fog.

VAZ042-051-052>054-056-291700-
NORTHERN VIRGINIA

CITY           SKY/WX    TMP DP  RH WIND       PRES   REMARKS
WASH NATIONAL  CLOUDY    83  61  47 S13       30.13F
DULLES         MOSUNNY   82  59  45 SW10      30.12F
FORT BELVOIR   SUNNY     82  61  49 S8        30.12F
QUANTICO       MOSUNNY   83  65  54 S10       30.14F
FREDERICKSBRG* SUNNY     83  63  49 S12       30.13F
STAFFORD*      SUNNY     82  60  46 SW7       30.17F
WARRENTON      SUNNY     85  57  38 SW10      30.12F
CULPEPER*      SUNNY     83  63  50 SW7       30.13F
MANASSAS*      SUNNY     82  62  50 SW8       30.12F
LEESBURG*      SUNNY     84  64  51 S8        30.12F
WINCHESTER     SUNNY     81  59  47 S8        30.11F
FRONT ROYAL*   SUNNY     81  61  50 SW3       30.11F
LURAY*         SUNNY     81  61  50 SW10      30.13F
$$

VAZ048-049-060>072-079>083-291700-
CENTRAL AND SOUTH CENTRAL VIRGINIA

CITY           SKY/WX    TMP DP  RH WIND       PRES   REMARKS
RICHMOND       PTSUNNY   84  63  49 S14       30.17F
CHESTERFIELD*  NOT AVBL
PETERSBURG*    SUNNY     82  60  46 SW12      30.19F
HANOVER        SUNNY     83  61  47 SW13      30.18F
TAPPAHANNOCK*  SUNNY     83  52  33 S8        30.17F
QUINTON*       FAIR      81  63  53 SW3       30.18F
CHARLOTTSVILLE SUNNY     82  62  50 SW12      30.14F
GORDONSVILLE*  SUNNY     81  62  52 SW9       30.14F
ORANGE*        SUNNY     81  61  50 SW8       30.14F
LOUISA*        SUNNY     84  64  51 S6        30.14F
BUMPASS*       FAIR      81  63  54 SW8G18    30.15F
FARMVILLE*     SUNNY     82  58  43 S12G17    30.16F
CREWE*         FAIR      82  57  43 S7        30.19F
FORT PICKETT*  FAIR      81  57  43 SW12      30.20S
CHASE CITY*    FAIR      81  62  53 SW6       30.21S
CLARKSVILLE*   FAIR      81  61  50 SW10      30.21F
SOUTH HILL*    SUNNY     80  62  53 SW7       30.27S
LAWRENCEVILLE* FAIR      81  61  50 W9        30.21S
EMPORIA*       SUNNY     81  59  47 S6        30.23S
$$

VAZ088>098-291700-
SOUTHEAST VIRGINIA

CITY           SKY/WX    TMP DP  RH WIND       PRES   REMARKS
NORFOLK        SUNNY     85  58  39 SW14      30.20F
VIRGINIA BEACH MOSUNNY   82  58  43 SW12      30.20F
NORFOLK NAVAL  MOSUNNY   85  58  39 SW10      30.22F
WEST POINT*    SUNNY     83  59  44 S12       30.20F
SALUDA*        FAIR      82  64  53 S9        30.18F
NEWPORT NEWS   SUNNY     83  60  45 SW12      30.20F
LANGLEY AFB    MOSUNNY   82  61  49 SW14      30.20F
FORT EUSTIS    SUNNY     83  62  49 S10       30.18F
WILLIAMSBURG*  SUNNY     84  63  48 S9        30.20F
HR EXEC AP*    FAIR      82  61  47 SW7       30.19F
FRANKLIN*      SUNNY     81  59  47 S7        30.22F
US460-WAKEFLD  SUNNY     83  61  47 SW7       30.21S
$$

VAZ020-022-025-037-045-291700-
WEST CENTRAL AND SOUTHWEST VIRGINIA

CITY           SKY/WX    TMP DP  RH WIND       PRES   REMARKS
STAUNTON*      SUNNY     80  60  50 S9        30.17F
WAYNESBORO*    SUNNY     80  62  54 SW8       30.17F
HOT SPRINGS VA SUNNY     70  50  49 W9        30.28F HAZE
LYNCHBURG      SUNNY     80  62  54 S13       30.19F
DANVILLE       SUNNY     80  63  55 SW13G21   30.20F
SOUTH BOSTON*  FAIR      82  61  48 SW12      30.20F
MARTINSVILLE   SUNNY     79  60  50 SW5       30.22F
ROANOKE        PTSUNNY   80  62  54 S6        30.20F
BLACKSBURG     MOSUNNY   77  59  53 SW5       30.25F
DUBLIN*        SUNNY     80  52  37 S6        30.24S
MARION*        SUNNY     78  58  48 W8        30.26F
HILLSVILLE*    MOSUNNY   77  57  49 S9        30.25S
RICHLANDS*     FAIR      77  11   8 SW9       30.23F
WISE*          SUNNY     77  57  50 SW6       30.23F
ABINGDON*      SUNNY     79  61  53 W6        30.22F
$$

MDZ021>025-VAZ099-100-291700-
SOUTHERN MARYLAND AND THE DELMARVA PENINSULA

CITY           SKY/WX    TMP DP  RH WIND       PRES   REMARKS
PATUXENT RIVER PTSUNNY   81  61  50 S13       30.15F
BAY BRIDGE APT CLOUDY    82  61  47 S13G18    30.13F
LEONARDTOWN    CLOUDY    79  61  53 SW10      30.17F
DOVER          MOSUNNY   83  65  54 SW16      30.12F
GEORGETOWN     MOSUNNY   83  59  44 SW14      30.17F
EASTON         PTSUNNY   82  59  44 SW13      30.18F
CAMBRIDGE      SUNNY     81  63  54 VRB7      30.16F
SALISBURY      MOSUNNY   82  61  48 SW14G23   30.18F
OCEAN CITY     MOSUNNY   76  67  73 S12G20    30.20F
WALLOPS ISLAND CLOUDY    78  69  73 S13       30.20F
ACCOMACK*      CLOUDY    82  60  48 SW12      30.20F
$$

NCZ012>017-030>032-291700-
NORTH CENTRAL AND EASTERN NORTH CAROLINA

CITY           SKY/WX    TMP DP  RH WIND       PRES   REMARKS
ROANOKE RAPIDS FAIR      81  61  50 S10       30.22F
RALEIGH        PTSUNNY   82  61  48 SW9       30.23F
ELIZABETH CITY SUNNY     82  62  50 S7        30.23S
AHOSKIE*         N/A     80  57  44 S8        30.22F
EDENTON*       SUNNY     82  62  49 CALM      30.24S
CURRITUCK*     SUNNY     84  55  37 SW3       30.23S
KILL DEVIL HLS SUNNY     80  56  43 SE8       30.23S
MANTEO         SUNNY     80  61  51 SW8       30.24S
CAPE HATTERAS  NOT AVBL
TARBORO*       NOT AVBL
GOLDSBORO      SUNNY     83  54  36 SE3       30.21S
WASHINGTON     SUNNY    N/A N/A N/A S5        30.24S
GREENVILLE     SUNNY     82  57  42 S3        30.24S
NEW BERN       SUNNY     84  60  44 E5        30.23F
WILMINGTON     SUNNY     83  65  54 E7        30.22S
$$

VAZ048-291700-
ELSEWHERE

CITY           SKY/WX    TMP DP  RH WIND       PRES   REMARKS
HARRISBURG PA  MOSUNNY   81  63  54 SE7       30.08F
BALTIMORE      CLOUDY    83  59  44 S9G18     30.11F
ANNAPOLIS      CLOUDY    80  61  52 S8        30.12F
ANDREWS AFB    MOSUNNY   83  59  43 SW14      30.12F
PHILADELPHIA   PTSUNNY   81  60  48 S14G23    30.13F
HENDERSON NC   SUNNY     78  59  52 SW8       30.22F
GREENSBORO     CLOUDY    80  63  55 SW9       30.21F
ROCKY MOUNT    SUNNY     83  59  44 VRB7      30.23S
$$

VAZ100-291700-
MARINE

STATION/POSITION TIME  TEMP    WIND        PRES    WAVE   SWELL
                       AIR SEA DIR/SP/G            HT/PER HT/PER
                 (UTC) (F)     (DEG/KT/KT) (MB)    (FT/S) (FT/S)
BRANDYWINE LGT   1542   75     200/ 12/ 14 1021.6F
CAPE MAY NJ      1548   72 68  170/ 11/ 15 1021.4F
LEWES DE         1542   80 66  230/  8/ 11 1021.3F
15NM E FENWICK I 1550   70 69  180/ 14/ 16 1022.8F   2/ 3
OCEAN-CITY-INLET 1542   71 69  200/ 12/ 17 1022.8F
WACHAPREAGUE VA  1542   79 76  170/ 12/ 14 1022.4F
THOMAS POINT MD  1600   78 76  200/ 13/ 15   N/A
GOOSES REEF MD   1600   78 77  240/ 12/ 16 1021.6    1/ 3
COVE POINT MD    1542   77     230/ 14/ 19 1021.6F
SOLOMONS ISLAND  1542   78 78  220/ 13/ 15   N/A
BISHOPS HEAD MD  1542   76 75  200/ 15/ 17 1021.7F
PINEY POINT MD   1542          220/ 12/ 13   N/A
POTOMAC MD       1600   78 78  220/ 12/ 14 1020.6    2/ 2
CAMBRIDGE MD     1542   82 80              1022.0F
LEWISETTA VA     1542   78 78  200/ 10/ 11 1021.4F
RAPPAHANNOCK LGT 1542          200/ 14/ 15 1023.1F
STINGRAY PT      1600   79 78  240/ 12/ 16 1022.2    1/ 2
YORK RVR RNG VA  1542   79     230/ 11/ 12 1022.8F
YORKTOWN VA      1542   80 78  220/ 10/ 13 1022.1F
JAMESTOWN VA     1600   80 81  220/  8/ 12   N/A     0
DOMINION TERM VA 1542   79     210/  7/ 10 1023.1F
KIPTOPEKE VA     1542      75  190/  6/  7   N/A
CHES BAY BRIDGE  1542   79 76  240/  8/ 10 1022.8F
CAPE HENRY VA    1542   81     210/  5/ 10   N/A
WILLOUBY STN VA  1542   79     240/ 11/ 12 1022.7F
S CRANEY ISL VA  1542   81     180/  5/ 10 1022.8F
CAPE HENRY BUOY  1600      72                N/A     1/13
1ST LANDING BUOY 1600   79 76              1022.8    1/ 3
CAPE CHARLES BUO 1551      70                N/A     1/ 9
64NM E OF VA BCH 1550   75 74  180/ 10/ 10 1024.4F   1/ 8   2/ 8
DUCK PIER NC     1542   76 71  140/ 11/ 12 1023.6R
44100 DUCK FRF   1505      73                N/A     1/ 9
OREGON INLET NC  1542   78 77  120/  9/ 12 1024.0S
HATTERAS NC      1542   79 77  140/  8/ 10 1023.9F
DIAMOND SHLS NC  1550   79 83  120/ 12/ 14 1023.9S   2/ 7   2/ 7
CAPE LOOKOUT NC  1600   79     120/ 10/ 11 1023.2F
$$




USA.gov is the U.S. government's official web portal to all federal, state and local government web resources and services.